Location: *
(49.9270°S, 164.9509°W)
Time: 11:49:01
(UTC+00:00)

Daily predictions for brighter satellites

Satellite Brightness Start Highest point End
(mag) Time Altitude Azimuth Time Altitude Azimuth Time Altitude Azimuth
ATLAS CENTAUR R/B 4.5 14:59:01 13° SE 14:59:01 13° SE 15:00:07 10° SE
Cosmos 2263 Rocket 3.7 15:07:39 30° SSE 15:08:21 31° SE 15:13:24 10° ENE
USA 267 4.5 15:17:55 10° ESE 15:23:54 35° NE 15:27:13 22° N
CZ-4C R/B 3.4 15:35:01 40° S 15:35:01 40° S 15:40:02 10° SE
USA 229 DEB 3.7 15:35:51 66° N 15:35:51 66° N 15:41:32 10° NNE
USA 229 3.7 15:35:57 66° N 15:35:57 66° N 15:41:39 10° NNE
Cosmos 1980 Rocket 3.2 15:32:43 24° NNE 15:35:42 43° ENE 15:41:02 10° SE
Cosmos 1763 Rocket 4.5 15:35:44 30° NNE 15:37:53 46° ENE 15:42:56 10° SE
Okean O Rocket 2.8 15:34:04 10° NE 15:37:18 40° ENE 15:37:18 40° ENE
Cosmos 2369 3.8 15:38:46 73° ENE 15:38:46 73° ENE 15:44:28 10° SSE
BREEZE-M R/B 4.1 15:38:52 77° WNW 15:39:27 89° N 15:51:37 10° E
Cosmos 1898 Rocket 4.1 15:45:46 49° NNE 15:45:46 49° NNE 15:49:39 10° NNE
PAYLOAD B 4.4 15:40:47 10° NNE 15:45:22 63° NNE 15:45:22 63° NNE
NOSS 3-1 (A) 3.3 15:47:29 78° N 15:47:29 78° N 15:52:49 10° NE
Aureole 3 Rocket 4.1 15:50:03 39° E 15:50:03 39° E 15:53:45 10° NNE
NOSS 2-3 (C) 4.3 15:51:02 76° W 15:51:22 79° NW 15:56:58 10° NE
Cosmos 468 Rocket 4.2 15:50:36 54° NNE 15:51:38 67° ENE 15:56:52 10° SSE
Cosmos 2026 Rocket 4.4 15:47:08 10° N 15:53:11 62° E 15:59:25 10° SSE
Cosmos 2278 3.9 15:56:07 36° N 15:58:28 71° ENE 16:04:12 10° SSE
USA 234 3.3 15:54:16 10° ENE 16:00:53 78° SSE 16:02:51 49° SW
Cosmos 1697 Rocket 2.5 16:02:54 74° WSW 16:02:54 74° WSW 16:08:38 10° SSE
SMAP 3.3 16:00:34 10° NNE 16:05:14 67° ESE 16:07:02 37° S
Cosmos 1092 Rocket 3.8 15:59:55 10° N 16:06:09 84° W 16:12:26 10° S
ATLAS 2AS CENTAUR R/B 3.9 16:04:40 22° SSW 16:06:16 24° S 16:11:31 10° ESE
CZ-4 R/B 4.1 16:06:18 10° ENE 16:09:18 19° ESE 16:12:20 10° SSE
Timation 1 Rocket 4.2 16:08:50 58° SW 16:10:00 74° WNW 16:16:01 10° NNE
CZ-4B R/B 3.1 16:04:35 10° NNE 16:10:12 79° WNW 16:12:45 35° SSW
Cosmos 1689 Rocket 4.4 16:07:49 10° SE 16:10:30 26° E 16:13:09 10° NNE
Cosmos 1953 2.6 16:14:22 61° NNE 16:14:22 61° NNE 16:17:44 10° NNE
Lacrosse 5 rocket 2.4 16:16:13 34° SSE 16:16:13 34° SSE 16:19:04 10° SE
Radarsat Rocket 4.2 16:08:10 10° N 16:15:23 71° WNW 16:20:01 21° SSW
Cosmos 1937 Rocket 3.3 16:15:37 68° W 16:15:44 68° WNW 16:20:53 10° N
Cosmos 1656 4.5 16:16:52 36° SSW 16:16:52 36° SSW 16:21:11 10° SSE
Nadezhda 4 Rocket 4.2 16:19:04 45° SW 16:19:04 45° SW 16:24:29 10° S
Cosmos 1908 4.3 16:17:14 21° SSE 16:19:32 44° ESE 16:23:14 10° NNE
Cosmos 1025 Rocket 2.8 16:23:13 77° WSW 16:23:13 77° WSW 16:27:30 10° S
YAOGAN 6 2.8 16:19:36 10° NNE 16:22:43 63° NE 16:22:43 63° NE
ADEOS Rocket 4.0 16:18:16 10° SSE 16:23:34 43° E 16:28:54 10° N
Cosmos 1241 Rocket 4.5 16:20:33 22° NW 16:25:03 89° SW 16:31:37 10° SE
Meteor 2-13 Rocket 4.3 16:20:54 10° NNW 16:27:04 78° W 16:33:21 10° S
ASTEX 1 4.1 16:24:26 10° NNE 16:29:14 55° ESE 16:34:08 10° S
H-2A R/B 4.2 16:28:11 10° S 16:29:09 15° S 16:29:09 15° S
Cosmos 2227 4.1 16:30:35 35° SW 16:33:05 75° WNW 16:38:44 10° NNE
AQUARIUS 4.0 16:29:06 10° N 16:33:39 76° WNW 16:35:53 30° SSW
Cosmos 2360 4.2 16:33:53 35° WNW 16:36:11 59° SW 16:41:53 10° SSE
Meteor 1-16 Rocket 4.2 16:30:18 10° SSW 16:36:14 79° W 16:41:54 10° N
ATLAS CENTAUR R/B 3.2 16:35:12 20° SSW 16:37:43 31° SE 16:42:04 10° E
IRS-1C Rocket 4.2 16:35:05 10° NNE 16:40:23 77° ESE 16:45:45 10° SSW
Cosmos 2322 Rocket 3.8 16:35:27 10° N 16:40:38 36° ENE 16:45:51 10° SE
Cosmos 1726 3.5 16:43:50 26° NNW 16:43:50 26° NNW 16:45:45 10° NNW
Radarsat 4.5 16:38:14 10° N 16:43:27 68° WNW 16:48:28 12° SSW
Cosmos 1536 Rocket 3.5 16:39:52 10° NNW 16:44:11 58° WSW 16:48:34 10° S
YAOGAN 1 4.3 16:40:21 10° NE 16:44:15 32° ESE 16:48:11 10° S
Meteor 2-8 Rocket 4.4 16:38:56 10° SSW 16:45:08 84° W 16:51:18 10° N
Aureole 3 3.8 16:40:40 10° S 16:45:40 71° ESE 16:49:32 10° NNE
Cosmos 1428 Rocket 4.5 16:40:29 10° NNW 16:46:46 63° WSW 16:53:09 10° S
Cosmos 1674 2.7 16:46:59 10° N 16:50:45 80° E 16:54:37 10° SSE
Cosmos 2263 Rocket 2.2 16:49:22 25° SW 16:52:40 61° WNW 16:58:18 10° NNE
Cosmos 1553 Rocket 4.0 16:46:17 10° SSW 16:52:45 68° W 16:59:03 10° N
Helios 1A Rocket 2.8 16:50:19 10° N 16:54:26 77° WNW 16:57:51 15° SSW
Envisat 3.3 16:52:39 10° N 16:57:31 43° W 17:01:07 18° SSW
Cosmos 1606 Rocket 3.5 16:53:32 10° S 16:57:58 85° ESE 17:02:21 10° N
Cosmos 2298 Rocket 4.0 16:53:44 16° SSW 16:58:06 80° WNW 17:03:26 10° NNE
NOAA 12 4.2 16:54:36 10° N 16:59:45 54° W 17:04:59 10° SSW
Cosmos 1461 4.0 17:03:00 23° NW 17:03:00 23° NW 17:05:47 10° N
In-Cosmos 22 4.1 16:59:16 10° NNW 17:04:42 59° WSW 17:10:05 10° S
S3M 3.9 16:59:52 10° SSW 17:06:04 72° W 17:12:11 10° N
USA 267 3.3 17:00:44 10° ESE 17:07:24 89° SSW 17:14:00 10° WNW
Cosmos 2285 Rocket 4.1 17:02:16 11° SSW 17:08:28 62° WNW 17:14:48 10° N
NOAA 11 4.2 17:03:41 10° NNE 17:09:15 85° WNW 17:14:53 10° SSW
Cosmos 1437 2.5 17:07:13 10° NNW 17:10:14 66° WSW 17:13:19 10° S
ATLAS 5 CENTAUR R/B 3.5 17:03:22 10° NNW 17:10:18 53° ENE 17:16:40 10° SE
Cosmos 2208 Rocket 3.9 17:06:31 10° NNW 17:11:42 67° WSW 17:16:57 10° SSE
Cosmos 2360 Rocket 4.0 17:06:41 10° N 17:11:44 34° ENE 17:16:49 10° SE
Cosmos 1814 Rocket 4.0 17:08:41 10° NNW 17:14:00 69° WSW 17:19:26 10° SSE
Okean O Rocket 2.9 17:11:35 10° NW 17:14:45 21° W 17:14:45 21° W
H-2A R/B 3.6 17:11:09 10° NE 17:15:33 32° ESE 17:20:04 10° S
SKYMED 2 3.7 17:14:33 10° SSE 17:19:01 83° ENE 17:23:25 10° NNW
Cosmos 1980 Rocket 2.6 17:14:37 11° WNW 17:19:47 40° SW 17:25:06 10° SSE
Cosmos 1763 Rocket 4.2 17:15:53 14° WNW 17:19:52 33° SW 17:24:39 10° S
Cosmos 2084 3.9 17:18:23 17° SW 17:21:37 58° SE 17:25:53 10° ENE
ARGOS Delta rocket 4.2 17:17:59 10° NNW 17:22:42 43° W 17:27:14 10° SSW
CZ-4C R/B 3.8 17:20:12 16° SW 17:24:00 25° S 17:28:54 10° SE
Cosmos 1726 Rocket 3.5 17:20:50 10° SSW 17:25:14 65° W 17:29:33 10° N
Okean 1-7 Rocket 4.0 17:24:17 10° N 17:28:43 68° E 17:33:16 10° SSE
Cosmos 1844 Rocket 3.0 17:23:47 10° SSW 17:29:32 68° ESE 17:35:13 10° NE
CZ-2C R/B 4.0 17:28:20 10° NE 17:33:19 51° ESE 17:38:40 10° S
PSLV R/B 4.1 17:30:08 10° S 17:34:13 50° WSW 17:38:16 10° NW
Aureole 3 Rocket 4.4 17:36:45 16° W 17:36:55 16° W 17:39:28 10° NW
KORONAS-FOTON 4.4 17:33:31 10° NW 17:37:04 34° WSW 17:40:41 10° S
Cosmos 1939 Rocket 3.1 17:36:40 10° N 17:40:40 53° W 17:44:49 10° SSW
CSL-04 Rocket 3.8 17:35:44 10° NNE 17:41:11 82° ESE 17:46:47 10° SSW
Ariane Rocket 4.4 17:36:45 10° NE 17:41:25 37° ESE 17:46:09 10° S
Cosmos 1689 Rocket 3.5 17:39:18 10° SSW 17:41:36 19° WSW 17:43:53 10° WNW
HJ-1C 4.1 17:38:34 10° NNE 17:41:53 54° ESE 17:45:13 10° S
Cosmos 540 Rocket 4.0 17:37:51 10° NW 17:42:42 38° WSW 17:47:36 10° SSE
CZ-4 R/B 1.6 17:39:43 10° N 17:43:54 59° W 17:48:10 10° SSW
USA 234 3.8 17:37:59 10° NNE 17:44:12 44° NW 17:50:13 11° WSW
SL-16 R/B 2.2 17:38:38 10° NW 17:44:20 71° WSW 17:50:05 10° SSE
CSL-04 Debris 4.2 17:41:26 10° NNE 17:46:54 88° WNW 17:52:24 10° SSW
Cosmos 1626 2.2 17:43:14 10° NNW 17:46:57 60° WSW 17:50:45 10° S
Cosmos 1697 Rocket 4.0 17:44:40 13° WSW 17:47:54 20° SW 17:52:01 10° S
Cosmos 2228 3.8 17:44:46 10° SSW 17:48:36 31° W 17:52:22 10° NNW
Cosmos 841 Rocket 4.2 17:44:04 10° WNW 17:48:52 34° SW 17:53:45 10° S
Cosmos 1953 4.4 17:50:07 10° W 17:50:07 10° W 17:50:23 10° W
Okean-O 3.1 17:45:21 10° N 17:49:36 41° W 17:53:54 10° SSW
Cosmos 2278 Rocket 3.8 17:45:37 10° SSW 17:50:35 29° SE 17:55:33 10° ENE
SL-14 R/B 3.3 17:49:18 10° NNW 17:53:12 57° WSW 17:57:07 10° S
Cosmos 2333 Rocket 4.5 17:48:35 10° NNE 17:53:28 30° ENE 17:58:21 10° SE
Orbus 7S? 3.9 17:50:59 10° WNW 17:54:31 86° SSW 18:02:27 10° ESE
Lacrosse 5 rocket 2.5 17:51:51 12° WSW 17:55:03 30° S 17:58:48 10° ESE
CZ-2D R/B 3.7 17:51:56 10° N 17:55:42 43° W 17:59:32 10° SSW
Cosmos 1125 Rocket 3.9 17:52:07 10° SW 17:57:11 45° WNW 18:02:09 10° N
Cosmos 2098 Rocket 4.1 17:52:23 10° NNW 17:58:10 61° WSW 18:05:12 10° S
ATLAS 2AS CENTAUR R/B 3.5 17:52:45 10° SW 17:58:49 41° SSE 18:05:19 10° ENE
Cosmos 1300 3.2 17:56:47 10° SSW 18:00:29 41° W 18:04:08 10° NNW
Cosmos 836 Rocket 4.5 17:58:30 10° NNW 18:03:45 80° WSW 18:09:05 10° SSE
Meteor 2-10 Rocket 4.1 17:59:23 10° S 18:05:07 70° ESE 18:10:31 10° NNE
COSMO-SKYMED 1 3.2 18:02:55 10° S 18:06:59 36° WSW 18:11:00 10° NW
Meteor 1-24 Rocket 3.7 18:03:31 10° NNW 18:08:47 53° WSW 18:14:04 10° S
ADEOS Rocket 3.4 18:04:06 10° S 18:09:05 34° WSW 18:14:02 10° NW
Cosmos 1818 3.6 18:05:46 10° NW 18:11:11 72° SW 18:16:38 10° SE
Cosmos 1892 Rocket 4.1 18:07:07 10° NW 18:11:19 38° WSW 18:15:34 10° S
Cosmos 1455 2.8 18:10:24 10° S 18:14:13 59° ESE 18:17:58 10° NNE
SJ-11-01 4.4 18:09:47 10° N 18:14:34 74° WNW 18:19:24 10° SSW
SL-24 R/B - RUBIN 2 3.8 18:10:34 10° NW 18:15:16 79° NE 18:19:37 10° SE
ATLAS CENTAUR R/B 1.9 18:12:13 10° SW 18:17:03 64° NW 18:21:50 10° NNE
